Wind_Speed
25 24 22 20 20 20 21 23 24 25 26 25 26 27 28 29 28 28 28 28 27 26 25 25 25 25 24 24 24 24 24 25 25 26 25 25 25 25 25 25 24 24 24 25 26 28 27 27 26 24 24 25 24 24 23 23 25 25 25 24 22 22 23 27 32 33 38 42 41 40 38 38 38 38 38 39 39 40 39 38 37 36 36 35 34
26 25 23 21 21 20 21 22 23 25 27 27 26 28 30 30 29 29 29 29 28 27 26 26 26 26 25 24 24 24 24 25 26 26 26 26 25 25 25 25 25 25 25 25 26 27 28 28 27 27 27 27 26 25 23 23 24 24 25 24 22 21 20 22 29 32 36 38 38 39 39 39 39 39 38 38 39 40 41 40 39 39 38 38 37
28 28 26 24 23 22 21 22 23 25 27 27 27 29 31 31 30 30 30 29 28 27 27 26 27 27 26 25 25 25 25 25 26 26 26 26 25 25 25 25 25 25 25 25 26 27 28 27 28 28 29 29 28 27 26 26 26 25 25 24 23 22 20 18 21 28 31 33 33 35 38 40 40 40 39 39 40 40 40 40 41 41 41 40 39
29 29 28 26 25 23 22 22 22 24 26 27 28 30 31 30 30 30 29 29 28 28 27 27 28 28 28 27 26 25 25 25 26 26 26 26 25 25 24 24 24 25 25 26 26 26 27 27 27 28 29 30 30 29 30 29 29 27 26 25 24 23 22 19 19 22 24 26 28 30 34 38 41 42 41 41 41 39 38 39 41 42 42 42 42
30 29 28 27 26 24 22 21 21 23 24 26 28 29 30 29 29 29 29 28 28 28 27 28 28 28 28 28 26 26 26 25 25 26 25 25 25 24 24 23 24 24 25 25 26 26 27 27 26 27 28 30 30 31 31 31 30 30 28 27 26 24 23 21 21 21 21 22 25 26 29 33 36 40 41 42 41 40 38 39 40 41 42 43 43
30 30 29 28 27 25 22 21 21 21 23 25 27 29 29 29 28 28 28 28 28 27 27 27 28 28 28 28 27 26 26 26 26 25 25 25 24 24 23 23 23 23 24 24 25 26 26 26 26 26 26 28 29 30 31 31 31 30 29 28 26 25 24 23 23 23 23 24 26 26 26 27 31 36 39 40 41 41 40 40 40 41 42 42 43
31 30 27 26 25 22 19 19 19 20 22 24 26 28 29 28 27 28 28 28 28 27 26 26 27 27 27 27 26 25 25 25 25 25 25 25 24 24 22 22 22 23 23 23 24 25 25 26 26 25 25 26 27 29 29 30 30 30 29 28 28 26 26 26 26 26 26 27 28 29 28 27 29 32 36 38 40 41 41 42 42 43 43 42 42
31 30 26 23 20 17 16 17 17 18 21 23 25 27 28 27 27 26 27 28 27 27 25 25 25 26 26 25 24 23 23 24 25 26 26 26 25 24 23 22 22 22 23 23 23 24 25 25 25 25 25 25 26 27 28 28 28 28 28 27 27 28 27 28 29 29 29 29 30 32 32 31 30 32 34 36 39 40 42 43 44 45 46 45 44
31 29 25 21 16 14 14 15 14 16 18 21 23 25 26 26 26 26 26 26 26 26 24 23 23 23 24 23 21 21 22 23 24 26 26 26 26 25 24 23 21 21 22 22 23 23 24 25 25 25 24 25 25 26 27 27 27 26 26 26 26 27 27 28 29 30 30 30 31 33 34 34 33 34 35 36 38 39 41 43 44 46 47 47 47
29 26 22 16 12 11 12 13 13 14 16 19 21 24 25 25 25 25 25 25 25 25 23 22 21 21 22 22 21 20 21 23 24 25 26 26 25 25 25 24 23 22 21 21 22 22 23 24 24 24 24 24 24 25 25 26 26 26 25 25 26 26 27 27 28 29 30 30 30 32 33 34 35 36 36 37 38 39 39 41 43 45 47 48 48
26 23 18 13 10 10 11 12 13 13 15 18 21 22 23 24 24 24 25 25 25 25 23 22 21 20 20 21 20 21 21 23 24 25 25 25 25 25 25 25 24 23 22 21 21 21 22 22 23 23 24 24 24 24 25 25 26 26 26 26 26 26 26 27 28 29 30 30 30 30 31 33 33 35 36 37 38 39 38 39 41 43 45 47 48
24 20 15 12 12 13 13 14 14 14 16 19 22 23 22 22 23 24 25 25 24 23 23 23 22 21 20 20 20 20 22 23 23 24 25 25 25 25 24 24 24 24 23 22 21 21 21 22 22 23 24 24 24 24 25 25 25 26 26 26 27 27 27 27 28 28 29 30 29 30 30 31 31 32 34 35 36 37 38 38 39 42 43 44 47
21 17 14 12 14 15 17 17 17 17 19 20 22 23 23 22 22 23 24 24 23 23 23 23 23 22 20 20 20 20 21 22 23 24 25 26 26 25 24 23 24 24 23 23 22 22 22 22 22 23 23 24 25 25 25 26 26 27 27 27 28 28 28 28 28 29 29 29 29 30 30 30 30 31 32 33 34 35 36 37 38 41 42 42 44
20 16 15 15 17 19 20 18 18 18 20 21 21 22 24 23 23 23 24 24 24 24 24 24 24 23 21 20 20 21 21 22 23 24 25 25 25 25 24 23 23 24 23 23 23 23 23 23 23 23 23 24 24 25 25 26 27 28 28 29 29 29 29 29 29 30 30 30 30 30 31 31 31 31 32 32 33 34 35 35 36 38 40 40 42
21 17 17 18 20 22 22 19 18 18 18 19 19 21 22 23 24 24 25 25 25 26 26 26 25 24 23 22 22 22 22 22 23 23 24 25 25 25 24 23 23 23 23 23 22 22 23 23 23 23 23 23 24 24 25 26 26 28 29 30 30 31 31 31 30 30 31 31 31 31 32 33 33 33 33 33 34 34 35 35 36 37 38 39 40
24 22 20 21 21 23 25 22 19 18 16 16 17 19 20 22 22 23 24 25 26 27 28 27 27 26 25 24 23 23 23 23 23 23 24 24 24 24 23 23 23 23 23 23 22 22 23 23 23 23 23 23 23 24 25 25 26 27 28 29 30 31 32 33 32 32 31 32 32 33 33 33 33 34 35 35 35 36 36 36 37 37 38 38 39
27 25 24 24 24 26 27 23 19 18 17 16 16 17 18 20 20 21 21 23 25 27 28 28 28 27 27 26 25 25 25 25 24 24 24 24 24 24 23 23 23 23 23 23 23 23 24 24 24 24 24 24 25 25 26 26 27 28 28 29 30 31 32 33 34 34 34 34 34 34 34 35 35 35 36 36 37 37 37 38 39 39 39 39 39
28 27 26 28 28 28 28 25 20 18 18 18 18 18 19 19 19 19 19 20 22 25 27 28 28 28 28 28 27 27 27 26 26 25 25 25 25 25 24 24 24 24 25 25 25 25 25 25 25 25 26 26 27 27 28 28 29 29 30 30 31 32 33 34 35 36 37 37 37 37 37 38 38 38 38 38 39 39 39 40 40 41 41 41 41
28 28 29 30 31 32 32 29 24 21 19 19 19 18 19 19 17 16 16 17 19 21 23 25 26 27 27 27 28 28 29 29 28 27 27 27 27 26 26 26 26 27 27 28 28 28 28 27 27 27 27 28 28 29 30 30 31 31 31 32 33 33 34 35 36 37 38 39 40 41 42 42 41 41 41 41 41 42 42 42 43 43 43 44 43
31 31 32 32 32 34 34 32 28 24 21 19 18 16 17 17 16 16 16 18 19 21 22 22 23 23 24 24 25 26 27 28 29 29 29 30 30 29 29 29 29 29 30 30 30 31 31 30 30 30 30 31 31 32 32 33 33 34 34 34 35 35 36 36 37 38 39 40 41 43 44 45 45 45 45 45 45 44 44 44 45 45 46 46 46
34 34 35 35 33 33 34 33 31 28 25 23 20 18 18 17 18 18 19 20 21 23 24 25 24 24 22 21 22 24 25 25 26 27 28 29 30 30 31 31 32 32 32 32 32 33 33 33 33 33 33 33 33 34 34 35 36 36 37 37 37 37 38 39 39 39 40 40 41 43 44 46 46 47 47 47 47 47 47 47 47 47 47 48 48
39 39 39 38 34 33 33 34 34 31 30 28 23 21 21 21 22 23 23 24 24 25 26 28 28 27 24 22 22 24 25 26 27 27 27 27 27 28 29 30 31 32 33 33 33 33 34 34 34 34 34 34 35 35 36 36 37 38 38 39 39 39 40 41 41 42 42 42 43 43 45 46 47 48 48 49 49 50 50 50 49 49 49 49 50
42 42 41 39 35 33 34 35 34 33 34 33 27 24 25 25 26 28 28 28 28 27 27 29 31 31 29 27 25 26 27 28 29 30 30 29 29 28 27 28 29 30 31 31 32 32 33 33 34 34 34 35 35 36 37 37 38 39 39 40 41 41 42 42 43 44 45 45 45 46 46 47 48 49 50 50 51 51 52 52 52 52 51 51 52
43 43 42 40 37 34 33 34 35 35 35 36 33 31 31 30 30 30 30 31 30 29 30 31 32 33 34 32 30 28 28 29 31 32 34 33 33 31 29 29 29 30 30 30 29 29 29 30 32 33 34 35 36 37 37 38 39 39 40 40 41 42 43 43 44 45 46 47 47 48 49 50 50 51 51 52 53 53 53 53 53 54 54 54 54
43 42 41 40 38 35 34 35 37 38 39 39 39 37 35 33 33 33 33 34 34 34 33 33 32 33 34 34 33 31 31 32 33 34 36 37 36 34 32 32 32 32 32 31 29 28 29 30 31 33 34 35 36 36 37 38 38 39 39 39 40 41 42 42 43 44 45 46 47 47 48 50 52 53 53 54 54 55 55 56 56 56 56 57 56
43 42 41 40 39 38 37 38 39 40 41 40 40 39 37 36 36 37 37 38 39 39 38 36 35 35 35 35 35 35 36 37 38 38 39 40 40 38 36 34 34 34 33 33 32 30 30 31 32 33 33 33 34 34 34 35 37 37 38 38 38 39 39 40 41 42 43 44 45 45 46 47 50 51 53 54 55 56 57 57 58 58 58 58 59
46 45 44 43 41 40 41 42 42 43 43 42 42 42 42 41 41 42 43 42 42 43 42 41 38 37 37 38 39 40 39 40 42 42 40 41 43 43 41 38 37 36 36 35 35 34 34 34 35 35 35 34 33 33 33 34 35 36 36 36 36 37 37 38 39 40 41 43 44 44 45 46 47 49 50 52 53 55 57 58 58 59 59 60 60
48 47 47 46 45 45 45 46 46 46 46 46 46 46 45 45 46 47 47 46 46 46 46 46 44 41 40 40 43 45 44 43 44 44 43 43 46 47 46 43 41 39 39 38 38 38 37 37 37 37 37 36 35 34 34 35 34 34 34 35 36 36 37 38 39 40 41 42 43 44 45 45 47 48 49 50 51 53 55 56 58 59 60 60 61
47 46 45 46 47 49 50 50 49 49 49 50 50 50 49 49 49 49 49 49 49 48 48 48 48 46 45 44 45 48 47 46 47 48 48 49 50 51 50 47 44 42 42 42 41 40 40 39 39 40 40 39 38 37 36 36 35 34 34 35 36 37 38 40 41 41 42 43 44 44 45 46 47 48 50 51 52 53 54 55 56 58 59 60 61
48 48 47 47 48 49 51 52 52 52 52 53 53 54 53 52 51 52 52 52 52 51 51 50 50 50 49 49 49 50 50 50 50 51 51 51 51 52 51 47 45 43 43 43 44 43 43 42 42 42 42 42 41 40 38 38 37 36 36 36 37 38 40 42 42 43 44 45 46 47 48 49 50 50 51 52 53 54 55 56 56 57 58 59 60
51 51 51 51 51 51 52 53 55 56 56 57 56 57 57 56 55 54 54 54 54 54 54 53 52 52 52 52 52 52 52 53 54 54 54 53 53 53 51 47 47 47 46 45 46 47 46 45 44 44 45 44 43 42 41 40 40 39 38 37 38 40 42 43 44 45 46 47 49 50 51 52 53 53 55 56 56 56 56 57 58 58 58 59 60
53 53 54 54 55 55 55 56 59 60 60 60 59 59 59 59 58 58 57 56 56 55 55 55 54 53 53 53 53 52 53 54 55 55 55 55 54 54 53 51 50 51 49 46 46 47 48 48 47 46 46 45 44 44 43 43 42 41 41 40 40 42 43 44 45 47 48 49 50 51 53 53 54 55 56 58 59 59 58 58 59 60 60 61 61
55 55 55 56 56 56 58 59 60 61 61 60 60 59 60 60 60 60 59 58 57 57 56 56 55 55 54 53 53 53 54 54 54 54 53 52 52 52 54 54 51 49 47 45 44 45 47 50 50 48 47 46 45 45 45 45 45 44 43 42 42 43 44 45 46 48 49 50 52 53 54 55 56 57 59 60 62 62 62 60 60 60 61 62 63
57 56 56 56 56 57 57 58 59 59 59 59 59 60 60 60 60 60 60 59 59 58 57 56 56 56 56 56 55 54 55 56 57 57 55 55 56 56 55 55 54 53 52 49 46 44 46 49 51 49 49 47 46 46 46 46 46 45 45 45 45 45 46 46 47 49 51 53 55 56 57 58 60 61 63 65 65 65 63 62 62 61 61 62 63
57 57 57 57 57 58 58 58 59 59 59 60 60 60 61 61 61 61 60 60 59 58 58 57 57 58 58 59 58 57 57 58 59 60 60 61 64 64 60 57 55 56 56 54 51 49 48 47 47 48 49 48 47 47 48 47 47 46 46 47 47 47 47 48 49 51 53 55 57 59 60 62 64 66 69 70 69 67 65 63 63 62 62 62 63
58 58 58 59 59 59 59 59 60 60 60 60 60 61 61 61 61 61 61 61 60 60 59 59 59 59 59 60 61 59 59 60 60 60 61 63 65 65 63 60 57 56 56 55 53 50 47 44 44 47 48 48 47 47 47 48 48 48 48 49 49 49 49 50 52 54 56 58 60 61 62 64 67 71 73 73 71 68 66 64 63 63 63 63 63
58 59 59 59 59 59 59 59 59 59 59 60 60 61 61 60 61 61 61 61 60 59 60 60 60 59 59 59 60 59 61 62 60 58 57 58 59 58 56 55 53 52 53 53 51 49 47 47 49 50 49 47 47 47 47 48 49 50 51 51 51 52 52 52 54 56 59 61 62 63 65 68 71 73 73 71 69 68 66 64 63 63 63 63 63
57 58 58 59 58 58 58 58 58 57 58 58 58 59 59 59 60 60 61 60 59 58 59 59 59 59 59 58 58 59 60 61 58 54 52 50 50 49 45 44 45 46 48 48 46 45 46 49 51 50 46 45 46 47 48 50 51 52 53 53 53 53 53 54 56 59 61 63 64 66 69 72 73 72 70 67 66 65 64 63 63 63 63 63 62
56 56 57 56 57 57 57 57 56 56 56 57 57 57 58 57 58 60 60 59 58 58 58 58 58 58 57 57 56 56 58 57 54 52 50 49 47 44 40 39 41 44 46 46 44 43 45 48 48 45 43 44 46 49 51 52 53 54 54 54 54 55 55 57 59 61 63 64 67 69 72 72 70 68 65 63 62 62 62 62 63 64 63 62 62
55 56 57 57 57 57 56 56 56 57 58 59 59 59 58 57 58 59 60 60 59 59 59 59 58 57 56 55 53 53 55 55 52 51 54 57 56 54 52 50 47 47 48 49 47 46 44 43 44 44 46 48 50 52 53 54 54 54 54 54 55 57 58 60 62 64 65 66 69 71 70 68 65 63 62 62 62 63 64 64 64 65 64 63 63
56 57 57 58 58 57 58 59 60 62 63 63 62 62 60 59 59 59 58 58 58 58 58 57 57 55 53 51 49 50 51 52 50 50 51 52 52 54 55 54 50 48 47 48 48 46 42 42 45 48 51 51 50 51 52 53 53 52 53 56 58 59 61 63 64 65 67 69 70 68 65 63 62 62 63 63 63 63 64 64 64 65 65 65 65
57 57 58 59 60 61 62 64 65 65 65 64 64 63 61 59 57 54 52 52 52 52 50 50 50 49 46 46 46 46 47 49 51 49 47 46 45 45 45 45 43 42 42 44 46 47 46 48 51 53 52 50 49 50 51 51 51 52 55 58 60 62 64 66 66 67 70 70 67 63 61 62 63 63 63 62 61 60 59 59 60 61 61 62 63
58 59 61 63 64 65 65 64 63 61 60 59 58 57 55 52 48 44 42 43 42 41 39 39 40 41 41 43 43 42 44 47 47 46 45 45 46 44 43 40 37 36 37 39 41 44 46 48 50 49 48 47 48 49 49 50 51 53 56 59 62 64 66 67 68 69 70 67 63 61 62 63 62 60 58 57 57 57 57 57 58 59 60 61 62
59 61 63 64 63 61 59 56 53 51 49 47 47 47 45 41 38 36 36 35 35 34 34 34 35 36 37 38 38 39 41 43 41 40 40 40 40 41 43 42 38 36 37 37 36 37 39 41 43 44 45 46 47 48 48 50 52 55 58 60 63 64 65 66 68 68 66 63 63 63 63 60 57 55 54 55 56 56 57 57 57 58 59 59 60
60 60 58 55 52 49 46 43 40 39 38 38 39 39 36 33 33 34 33 31 32 33 33 33 32 31 31 32 34 37 39 40 39 38 37 35 35 38 41 44 43 42 40 37 36 36 37 38 41 43 44 45 46 47 48 50 53 56 59 61 61 62 63 65 65 64 63 64 64 62 58 55 53 52 52 53 53 53 53 52 51 50 50 51 52
52 49 45 42 40 38 36 32 30 31 33 34 33 33 32 30 32 33 32 30 30 32 32 31 29 28 29 31 34 38 39 38 37 38 37 36 37 38 39 42 44 44 41 39 38 38 38 39 41 43 44 45 46 47 49 53 55 57 58 59 59 60 61 62 62 63 64 63 60 57 54 52 50 49 48 48 47 47 48 48 47 46 46 45 45
39 36 35 35 34 31 29 28 28 29 31 31 29 29 29 29 31 32 32 31 31 30 30 29 28 29 31 33 36 38 38 36 36 36 37 37 38 38 37 37 40 41 40 39 39 39 39 40 41 42 44 46 47 49 51 54 55 55 56 56 56 58 59 60 62 63 62 58 55 54 53 50 46 44 43 43 43 43 43 44 45 45 45 44 43
31 32 32 30 28 26 26 27 27 28 29 29 28 29 30 31 32 32 33 33 31 29 28 29 30 31 33 35 35 36 36 37 36 36 36 36 37 35 34 35 37 39 39 39 38 38 39 40 41 42 43 45 47 50 52 52 52 53 53 53 54 56 58 60 61 59 56 53 52 52 50 45 42 40 40 40 40 40 40 41 41 42 43 43 43
29 30 28 25 24 24 26 26 25 25 26 26 26 27 28 29 31 33 32 31 29 28 29 29 28 29 32 35 35 34 35 35 35 34 34 34 34 33 32 33 35 36 36 37 37 37 38 40 41 42 44 45 47 49 49 49 49 50 51 52 54 56 58 58 56 53 50 49 48 47 44 41 40 40 40 41 41 41 39 39 39 40 41 41 42
28 26 24 23 23 23 22 21 20 21 20 20 19 17 17 21 26 28 29 28 27 28 29 29 29 31 34 35 35 35 35 35 35 33 32 31 30 30 30 31 32 33 33 34 35 36 38 40 41 43 44 46 46 46 46 46 46 48 50 53 54 55 55 54 51 48 47 45 42 39 38 38 38 38 39 40 41 41 40 39 38 39 40 41 42
26 24 22 22 22 21 18 16 15 14 12 12 10 10 13 18 21 24 25 24 24 24 26 30 35 38 38 36 35 34 35 35 33 31 28 27 27 27 27 28 29 29 30 32 34 36 39 41 42 44 44 43 43 43 43 44 46 47 50 52 52 51 50 49 47 45 42 39 36 34 34 35 36 36 36 37 36 36 37 37 37 37 38 38 37
Wind_Direction
262 262 263 266 265 265 266 266 267 268 269 269 268 268 269 269 268 269 269 270 271 271 271 271 271 270 268 267 266 266 267 267 267 266 265 264 263 263 263 262 259 256 254 252 250 247 244 242 243 244 244 246 247 245 245 248 251 251 250 247 241 235 231 233 237 237 233 230 229 231 231 233 236 235 234 233 233 232 233 236 239 240 242 242 242
268 269 271 271 270 270 269 266 266 267 267 266 265 265 265 266 267 268 268 269 270 270 270 270 270 269 267 266 265 266 266 266 265 265 264 263 262 261 261 260 259 256 253 252 250 248 245 242 240 239 239 240 243 243 243 245 250 253 252 250 247 240 230 227 230 232 232 231 231 234 235 235 237 238 237 235 234 234 233 234 237 239 241 242 243
273 274 276 276 274 272 269 266 266 266 265 265 264 263 263 265 265 266 266 267 268 269 269 269 268 268 267 265 264 263 263 263 263 263 263 262 261 260 259 258 257 256 254 252 251 249 248 244 240 240 239 239 239 240 241 241 244 249 249 248 246 242 236 227 224 227 228 229 232 235 237 236 237 238 237 236 236 235 235 235 236 238 240 242 243
274 276 278 277 273 270 267 266 267 265 263 263 262 262 263 264 264 264 264 265 266 266 267 268 268 268 268 268 266 264 262 260 260 260 261 261 260 259 258 257 256 255 254 253 251 250 249 246 241 240 240 240 240 238 240 240 239 242 244 245 245 245 240 231 224 225 224 227 232 235 238 240 239 238 237 236 237 236 237 238 238 239 240 242 243
274 276 276 273 270 268 265 265 266 263 261 261 261 263 264 263 263 263 263 263 263 264 266 267 268 269 270 270 269 267 265 262 260 258 258 258 259 258 256 255 255 254 254 253 252 251 250 249 245 241 240 241 241 240 240 241 241 241 241 242 246 248 246 237 230 228 227 229 232 234 237 240 240 240 238 236 237 237 237 239 240 241 242 242 243
272 273 272 270 269 268 265 264 262 260 260 261 261 262 262 261 261 261 262 261 262 263 264 265 267 268 269 270 269 268 266 265 262 260 258 257 257 257 256 255 254 253 253 253 252 252 252 251 249 245 242 242 243 243 243 243 243 244 242 241 244 247 247 245 239 235 232 232 234 234 235 239 241 241 239 237 238 238 239 240 241 241 242 243 244
269 269 270 269 268 268 265 260 256 256 258 259 260 261 261 261 260 260 260 260 261 261 262 263 265 266 267 267 267 267 266 265 264 263 261 259 257 255 255 255 254 253 252 251 251 252 252 252 251 249 246 244 245 247 247 246 246 246 245 242 242 244 245 246 245 241 237 235 237 237 235 237 240 239 239 239 240 241 242 242 242 242 242 243 244
264 265 268 270 269 264 259 255 253 254 256 257 258 259 260 262 261 260 259 260 261 262 262 262 263 264 265 265 265 266 266 266 265 264 263 261 259 256 255 253 253 253 252 252 251 250 251 252 252 251 249 246 246 247 249 250 248 248 248 245 243 243 243 244 246 246 243 239 240 241 239 238 238 239 239 240 242 245 246 247 246 245 244 243 243
259 261 266 273 272 258 250 252 253 255 258 259 259 260 261 262 261 261 260 261 261 262 261 260 260 262 262 262 263 263 264 265 264 264 264 262 261 259 257 254 252 250 250 251 250 250 250 251 251 251 250 248 247 247 249 250 251 249 248 247 246 245 245 246 247 248 248 245 243 243 244 242 240 240 240 240 242 245 247 249 250 250 249 247 246
256 259 263 271 270 251 242 246 252 258 262 262 262 261 261 261 262 262 261 259 258 258 259 258 258 259 260 261 261 260 261 261 261 262 263 264 263 261 260 258 255 251 249 248 248 249 249 250 251 251 251 249 248 247 247 249 251 251 250 249 248 247 246 246 248 250 251 250 248 246 246 245 243 242 241 241 242 243 244 246 250 252 252 250 250
256 257 259 262 257 244 239 241 245 254 261 262 261 259 259 260 260 260 259 258 257 258 258 258 257 257 258 261 262 261 260 259 258 258 260 262 263 263 262 261 260 257 254 250 248 247 247 247 248 250 251 251 249 248 247 247 248 250 250 249 248 248 247 246 247 249 251 251 251 250 249 248 247 246 245 244 244 244 243 243 246 251 252 251 251
254 255 257 256 251 250 251 248 245 252 262 264 262 260 259 259 259 259 260 261 261 261 261 261 259 256 255 257 259 260 260 259 258 256 257 259 261 262 263 264 264 264 263 260 255 252 249 247 246 247 247 248 249 249 248 248 248 249 249 249 248 248 248 247 247 247 249 250 251 252 252 252 251 250 249 249 248 247 246 243 243 247 250 249 248
249 255 259 260 261 263 264 258 251 258 267 267 263 261 260 260 260 260 262 264 266 266 265 263 262 258 256 255 256 257 258 259 258 256 256 256 258 260 262 263 264 266 267 268 266 262 258 254 251 249 248 247 248 249 249 250 250 251 251 252 251 250 250 250 250 250 250 251 252 253 254 254 255 254 253 253 252 251 251 249 246 246 248 247 247
240 253 264 269 271 270 268 264 260 264 270 268 264 261 260 260 261 261 262 264 266 267 266 264 263 261 259 257 256 256 257 258 257 256 255 255 256 258 260 261 262 263 265 266 268 268 267 265 261 258 255 253 252 251 251 251 252 252 253 254 255 255 254 253 253 254 254 255 255 255 255 256 256 257 257 257 257 256 255 254 252 250 250 249 248
239 249 261 268 273 272 269 269 271 270 266 265 264 262 260 260 260 261 262 263 264 264 264 263 261 259 258 257 255 255 255 255 256 255 255 254 255 257 259 261 261 262 262 263 264 265 267 268 268 267 266 263 261 259 258 256 255 255 255 255 256 256 257 257 256 255 255 256 257 257 257 257 258 258 259 259 260 260 260 259 257 255 255 254 252
243 249 258 263 267 270 270 272 275 269 259 259 260 258 257 258 257 259 260 262 263 263 262 260 259 257 255 254 254 254 254 254 253 254 254 254 254 255 257 260 262 263 263 263 263 262 262 263 264 265 266 266 266 265 264 262 261 259 258 257 257 257 257 258 259 259 258 257 257 258 258 258 259 259 260 261 261 262 263 263 262 260 259 259 258
247 255 264 266 266 268 272 273 268 259 254 255 256 254 252 253 254 255 256 258 260 261 261 260 258 257 255 255 255 255 255 254 253 252 253 252 252 252 254 257 260 262 264 264 264 263 262 261 261 260 261 261 262 263 264 264 263 263 262 261 260 259 258 258 259 260 260 260 260 260 260 260 260 260 261 262 263 264 265 265 265 265 264 263 261
249 258 267 273 272 273 276 274 264 260 262 259 255 253 251 249 248 248 251 255 258 261 262 261 260 259 258 257 257 257 257 256 255 254 253 254 253 253 253 254 256 258 260 262 262 263 263 262 262 262 262 263 263 263 263 263 263 263 263 263 262 262 261 260 260 260 261 261 262 262 262 262 262 262 262 262 263 264 265 266 267 267 267 267 265
251 258 267 273 274 274 276 274 267 266 268 261 256 257 254 246 242 244 252 260 264 266 266 265 264 262 261 261 260 261 261 260 259 259 258 258 257 257 256 256 255 255 256 257 258 260 261 261 262 262 263 263 264 264 264 264 264 263 263 263 263 262 262 261 261 261 262 262 264 265 265 265 264 264 264 264 264 264 264 265 266 266 267 267 267
259 263 268 270 271 270 270 270 269 267 263 256 253 255 251 245 246 255 263 270 273 272 269 268 267 264 263 264 264 264 264 263 263 262 262 261 261 261 261 260 258 257 256 256 257 258 259 260 260 261 262 263 264 265 266 266 266 266 266 265 265 264 263 262 261 261 261 261 263 264 265 266 266 266 266 266 265 265 265 264 265 265 266 266 266
263 266 268 269 268 264 261 263 266 266 263 256 253 251 247 247 254 261 264 271 279 278 271 265 264 263 262 263 267 268 268 267 264 262 261 260 260 261 262 262 261 260 259 258 258 258 259 259 260 261 262 263 264 265 266 266 267 267 268 268 267 267 266 265 264 262 261 261 261 262 263 264 265 266 267 267 267 267 266 265 265 265 265 266 266
263 265 267 266 261 257 257 261 264 264 260 256 254 252 249 252 259 263 266 272 278 280 274 266 262 263 262 264 268 270 271 271 268 265 262 261 262 263 263 263 263 262 260 259 259 259 259 260 260 261 263 264 264 265 266 266 267 267 268 268 268 268 268 268 267 266 264 262 262 262 262 262 263 263 264 265 266 267 267 266 266 265 265 265 265
262 264 264 262 256 254 257 261 265 263 256 251 252 255 256 258 261 263 268 273 276 277 276 271 268 265 265 267 271 272 272 272 270 268 266 264 264 264 264 265 265 263 262 261 260 260 260 260 261 262 263 264 265 266 267 267 267 268 268 268 269 269 269 269 269 269 268 266 265 264 263 262 262 262 263 263 264 264 265 266 266 266 265 265 265
260 261 261 260 258 257 258 261 264 263 254 248 251 256 260 261 262 263 267 272 274 275 275 274 273 269 266 268 273 276 277 275 272 270 268 266 266 264 263 263 264 265 264 262 261 261 263 264 265 267 268 269 270 270 270 270 270 270 270 271 271 271 271 271 271 271 270 270 269 268 267 265 263 263 263 263 263 263 263 264 265 266 266 265 265
260 259 258 259 260 259 260 262 265 264 257 250 251 256 257 258 260 264 268 272 273 272 271 271 273 272 267 263 266 273 278 279 275 271 270 269 268 267 264 262 263 265 265 262 260 263 268 270 271 273 274 275 275 275 274 273 272 272 272 273 273 273 274 274 274 274 273 273 272 272 272 270 268 266 266 265 264 263 263 263 263 264 265 266 266
259 259 257 257 258 259 261 264 265 266 261 255 255 259 260 259 259 262 267 270 271 271 270 269 270 271 267 263 262 267 273 278 276 273 272 272 270 269 268 266 265 266 265 262 260 265 270 272 273 275 276 278 278 278 278 277 276 275 274 275 275 276 276 277 278 278 278 277 277 277 276 275 273 271 270 269 267 265 264 263 263 263 263 264 265
260 261 259 257 256 258 262 266 266 266 265 262 262 264 265 263 262 264 266 268 270 271 271 270 269 267 266 265 265 266 269 274 275 273 274 275 274 272 270 269 268 267 265 262 262 266 270 271 273 275 277 279 279 278 279 281 280 278 277 277 279 279 281 282 283 283 283 283 282 282 281 280 279 276 275 274 272 269 267 265 264 263 262 262 263
259 261 261 260 258 258 261 264 264 263 264 264 264 265 266 266 266 267 267 268 268 269 269 270 269 266 265 265 266 267 268 271 273 272 273 276 278 276 273 270 268 267 265 264 264 266 269 271 272 274 276 278 279 279 280 280 279 278 277 279 281 283 286 287 287 287 287 287 287 286 286 286 285 282 280 278 277 274 271 268 266 264 263 262 262
257 258 259 259 259 258 259 259 258 257 259 263 265 265 265 267 268 269 269 269 269 268 268 268 268 268 266 265 264 266 268 269 270 270 272 275 277 278 276 270 267 266 265 265 265 266 268 270 271 273 274 277 279 279 279 278 278 276 277 279 283 287 289 289 288 288 288 288 288 288 288 288 288 287 285 284 281 278 275 272 270 267 265 263 262
258 259 258 258 258 258 257 256 253 254 258 263 265 265 265 266 266 268 269 269 269 268 267 267 267 267 267 266 265 266 268 270 270 269 271 272 273 276 276 272 267 267 267 267 267 267 267 268 270 272 273 275 278 279 278 277 276 275 276 280 284 287 288 288 288 287 287 287 288 288 288 288 287 287 287 287 285 282 278 275 273 271 268 266 263
258 259 259 258 258 257 255 253 253 255 260 264 265 265 266 265 265 265 266 267 268 268 268 267 266 265 265 266 266 267 267 269 269 267 267 269 270 273 274 273 271 269 268 268 268 268 268 268 269 271 272 273 276 278 277 276 275 275 276 279 283 285 286 286 286 287 287 287 288 288 287 287 287 288 288 287 286 285 282 278 275 272 270 268 266
259 259 258 258 257 257 256 255 255 257 260 263 264 264 264 264 265 264 265 265 266 267 267 267 266 265 264 265 265 266 266 266 266 266 267 268 268 268 268 270 273 272 269 269 270 271 272 271 270 271 271 272 274 276 275 274 274 275 276 279 282 283 284 285 286 288 288 288 287 287 286 287 287 288 289 289 287 285 282 279 276 273 271 270 268
260 259 259 259 258 258 257 257 257 258 259 260 261 261 261 261 262 263 263 263 264 264 265 266 266 266 265 264 264 265 265 265 265 265 266 266 266 266 266 266 269 269 268 271 273 273 275 274 270 269 270 270 272 274 273 273 273 274 276 278 280 281 282 284 286 287 288 287 287 286 286 287 288 289 290 290 288 285 282 279 276 274 272 270 268
262 262 261 261 261 261 260 260 260 260 260 260 259 259 259 259 259 260 260 261 261 262 263 264 265 266 266 266 265 265 265 266 265 264 263 263 265 268 268 266 265 264 266 271 273 276 280 276 270 269 271 269 270 271 271 271 273 274 276 277 278 279 281 283 285 287 287 287 287 287 288 289 290 291 291 291 289 286 281 277 275 273 272 270 268
263 263 264 264 264 263 263 263 263 263 263 262 261 260 260 259 259 259 259 259 260 260 260 261 263 264 265 266 266 266 266 266 266 264 264 263 264 267 269 269 268 266 266 270 272 278 282 276 270 273 273 268 268 269 269 271 273 275 276 277 277 278 280 282 285 286 287 288 288 288 290 291 291 292 292 291 289 284 279 275 273 272 271 270 268
264 264 264 264 264 264 264 264 264 264 264 264 263 263 262 261 261 261 260 260 260 260 260 260 261 261 262 263 264 264 265 265 264 265 265 265 266 268 268 268 267 267 269 270 272 275 278 273 274 279 275 267 266 269 269 271 274 275 276 276 277 278 279 282 285 287 288 289 289 290 290 291 291 291 290 288 285 282 278 274 272 270 270 269 268
264 264 264 264 264 264 264 264 264 264 264 264 264 264 264 264 263 263 262 261 261 261 260 260 260 259 259 260 260 261 262 263 263 263 265 267 268 268 266 265 266 267 268 269 269 272 273 272 276 280 273 266 267 269 270 272 274 274 275 276 277 278 280 282 285 288 289 290 291 291 291 290 290 289 287 284 281 279 276 273 271 269 268 268 267
265 264 264 264 264 263 263 263 263 263 264 264 264 264 264 264 265 265 264 263 262 261 260 260 259 258 257 257 258 258 260 262 263 262 262 263 262 262 262 263 264 265 266 266 268 272 274 274 276 275 269 267 270 270 271 272 273 274 276 277 279 280 282 284 287 289 291 291 291 290 290 289 288 286 283 280 277 276 274 273 271 269 268 267 265
267 267 266 266 266 266 265 265 265 265 265 266 266 265 264 264 264 265 264 263 263 262 260 259 258 258 257 256 257 258 258 261 262 260 257 255 255 256 259 263 266 268 268 269 271 276 277 275 272 269 269 273 274 272 270 271 273 275 277 279 281 283 284 287 289 291 291 291 290 290 289 288 286 283 280 277 275 274 273 272 271 270 268 267 265
268 269 270 270 270 269 268 268 269 271 271 271 270 268 267 266 264 263 263 263 262 260 259 259 258 258 257 256 257 257 257 260 262 258 255 255 257 260 262 266 272 275 273 270 271 277 278 271 265 267 273 276 274 269 268 271 274 277 280 282 284 286 288 290 291 291 291 291 290 290 288 286 283 280 278 276 275 274 273 272 270 269 269 267 265
268 269 270 271 271 271 270 271 273 275 274 273 272 271 269 267 265 264 263 262 260 258 258 257 257 258 258 258 258 257 258 262 263 261 258 258 260 262 263 265 270 273 271 267 268 271 271 267 267 271 274 274 271 268 270 274 277 280 283 285 287 288 289 290 290 290 291 291 291 289 286 284 282 281 280 278 277 275 273 271 270 269 268 267 265
269 270 271 271 271 272 272 273 274 274 274 273 272 270 268 266 265 263 261 259 257 257 256 256 256 255 255 254 254 255 256 258 260 261 260 259 261 262 261 261 266 269 268 266 266 267 267 268 269 272 272 271 271 272 274 277 280 282 284 286 287 289 289 290 291 292 293 292 290 287 285 284 283 282 281 280 278 275 273 271 269 268 267 266 265
271 272 273 274 274 275 275 275 275 274 272 271 269 267 265 263 260 258 255 253 253 253 253 253 252 249 248 248 249 251 252 254 256 258 258 258 259 259 255 257 265 269 270 271 270 268 267 267 268 270 270 271 272 274 277 280 282 284 285 286 288 289 289 291 293 294 293 291 289 287 286 286 285 283 280 278 277 275 273 271 269 267 266 266 265
274 276 277 278 278 278 278 277 275 273 270 267 265 263 260 255 251 248 248 248 248 248 250 251 249 246 245 245 247 248 250 251 251 251 251 253 255 254 252 253 260 270 277 278 276 273 272 271 271 270 270 270 273 276 280 282 283 285 286 287 288 289 291 293 294 294 292 290 289 289 288 286 284 282 280 278 276 274 273 271 270 268 268 267 266
279 280 280 280 280 279 278 276 273 269 266 263 261 258 253 246 242 242 245 245 244 245 247 249 247 244 241 240 241 243 246 246 245 246 248 252 255 257 255 252 256 266 276 278 278 281 281 278 274 271 270 272 275 279 281 283 284 285 286 287 289 291 293 293 293 292 291 290 290 289 287 285 284 283 281 278 276 274 273 272 271 270 269 268 267
281 280 280 279 277 276 274 271 266 262 260 259 258 255 248 241 237 238 241 242 241 242 244 244 240 235 235 238 239 238 238 241 246 250 252 255 257 259 259 256 257 264 271 275 279 282 280 276 273 272 272 273 276 279 281 283 285 286 287 289 291 292 292 292 292 292 292 291 290 288 287 286 286 284 281 278 276 274 273 272 271 270 270 270 269
280 279 278 276 273 270 268 264 260 257 257 258 257 252 244 237 235 236 239 241 242 243 241 236 230 227 230 233 234 235 238 244 249 250 250 253 256 259 261 261 260 264 271 276 278 276 272 272 272 272 273 275 277 279 282 284 286 288 289 291 292 292 292 292 293 293 292 290 289 288 289 289 287 284 282 280 278 276 274 272 271 270 270 270 269
276 277 275 272 267 264 262 261 259 258 259 260 257 251 244 239 237 237 239 241 242 240 232 226 225 228 230 230 231 236 241 244 245 245 247 252 256 259 261 262 263 266 270 272 271 270 270 272 274 275 277 278 279 282 285 287 288 290 291 291 291 291 292 292 292 291 289 288 289 289 289 288 286 283 282 281 280 279 277 275 272 270 269 269 268
272 273 270 265 262 262 264 263 261 262 264 263 258 252 245 239 235 234 234 234 231 225 219 218 220 222 224 226 230 236 240 240 241 244 248 251 253 256 259 261 263 265 267 267 268 271 274 276 278 280 280 281 283 285 288 290 291 291 291 291 292 292 292 291 289 288 287 288 288 288 286 285 283 282 282 281 280 278 277 276 274 272 271 270 271
269 266 263 263 265 266 265 262 262 265 264 259 254 244 230 224 222 220 218 215 213 212 213 215 214 213 216 224 231 236 238 238 239 242 245 247 250 253 256 259 260 262 265 268 272 276 278 280 282 283 284 285 287 289 290 291 292 291 292 292 293 293 292 289 287 287 288 288 286 283 283 283 284 284 284 283 280 276 274 274 275 274 273 273 274
264 261 262 265 265 263 258 256 261 261 249 242 235 207 191 194 197 200 202 202 204 209 209 207 207 208 212 221 229 231 232 231 231 234 238 243 247 249 252 257 262 267 272 277 280 281 283 284 285 286 288 289 290 291 291 292 292 292 293 295 295 294 291 288 287 288 288 286 282 280 282 283 284 286 288 288 283 276 272 272 274 276 276 276 274
Height
5760 5761 5762 5763 5763 5763 5764 5763 5763 5762 5762 5762 5762 5761 5761 5761 5762 5763 5763 5764 5765 5766 5767 5767 5768 5768 5769 5769 5770 5770 5770 5770 5770 5770 5770 5770 5771 5770 5771 5771 5772 5773 5774 5774 5775 5776 5777 5778 5780 5781 5781 5782 5783 5783 5784 5785 5784 5785 5785 5786 5787 5788 5789 5790 5791 5793 5794 5795 5797 5799 5802 5804 5805 5807 5809 5811 5813 5814 5815 5817 5818 5819 5820 5821 5822
5757 5758 5759 5759 5760 5760 5761 5761 5760 5760 5759 5759 5759 5758 5757 5758 5759 5759 5760 5761 5762 5762 5763 5764 5764 5764 5765 5766 5766 5767 5767 5767 5767 5767 5767 5767 5768 5768 5768 5768 5769 5770 5770 5771 5772 5772 5773 5775 5777 5778 5778 5779 5780 5781 5782 5782 5782 5782 5783 5784 5784 5785 5787 5787 5788 5789 5790 5792 5794 5796 5798 5800 5802 5804 5806 5807 5809 5810 5812 5813 5815 5816 5816 5817 5818
5753 5754 5755 5756 5757 5758 5758 5758 5757 5757 5756 5755 5755 5754 5754 5755 5756 5756 5757 5758 5759 5759 5759 5760 5760 5760 5761 5762 5763 5764 5764 5764 5764 5764 5764 5764 5765 5765 5765 5765 5766 5766 5767 5768 5769 5769 5770 5772 5774 5775 5775 5776 5777 5778 5779 5780 5780 5780 5781 5782 5782 5783 5784 5786 5786 5786 5787 5789 5791 5793 5795 5796 5798 5800 5801 5803 5804 5806 5808 5810 5811 5812 5813 5814 5815
5750 5751 5752 5753 5754 5755 5755 5755 5754 5753 5752 5752 5751 5750 5750 5752 5753 5753 5754 5755 5755 5756 5756 5756 5756 5756 5757 5758 5759 5760 5760 5761 5761 5761 5761 5761 5761 5762 5762 5763 5763 5763 5764 5765 5766 5766 5767 5768 5770 5772 5772 5773 5774 5775 5775 5776 5777 5778 5779 5780 5780 5780 5782 5783 5783 5783 5784 5786 5788 5790 5791 5792 5794 5795 5797 5798 5799 5802 5805 5806 5808 5809 5810 5811 5812
5747 5748 5749 5749 5750 5751 5752 5752 5751 5750 5749 5748 5748 5747 5748 5749 5750 5750 5751 5752 5752 5753 5753 5753 5753 5753 5753 5754 5755 5756 5756 5757 5757 5758 5758 5758 5758 5759 5759 5760 5760 5760 5761 5762 5762 5763 5764 5765 5767 5769 5770 5770 5770 5771 5772 5773 5774 5775 5776 5777 5778 5778 5779 5780 5780 5780 5781 5783 5785 5787 5787 5788 5789 5791 5792 5794 5795 5798 5800 5801 5803 5805 5806 5807 5809
5744 5744 5745 5745 5746 5748 5749 5748 5747 5746 5746 5745 5745 5745 5745 5746 5747 5747 5748 5748 5749 5750 5750 5750 5750 5750 5750 5750 5751 5752 5753 5753 5754 5754 5755 5755 5756 5756 5756 5757 5757 5758 5758 5759 5760 5760 5761 5762 5763 5765 5766 5767 5767 5768 5768 5769 5770 5772 5773 5774 5775 5775 5776 5776 5777 5778 5780 5781 5783 5783 5784 5786 5786 5787 5788 5790 5791 5793 5795 5797 5798 5800 5801 5803 5805
5740 5740 5741 5742 5743 5744 5745 5745 5744 5744 5743 5743 5743 5743 5742 5743 5744 5744 5744 5745 5745 5747 5748 5748 5747 5747 5747 5747 5748 5748 5749 5749 5750 5750 5751 5752 5753 5753 5754 5754 5755 5755 5756 5756 5757 5758 5758 5759 5760 5762 5763 5764 5765 5765 5765 5766 5767 5768 5770 5771 5772 5773 5773 5773 5774 5776 5778 5779 5780 5780 5782 5783 5783 5784 5784 5786 5787 5789 5791 5792 5793 5795 5796 5799 5800
5737 5737 5737 5738 5740 5741 5742 5742 5742 5741 5741 5741 5741 5740 5740 5740 5741 5741 5741 5741 5742 5744 5745 5745 5745 5744 5744 5744 5745 5745 5746 5746 5746 5746 5747 5748 5749 5750 5751 5752 5752 5753 5753 5754 5755 5755 5756 5757 5757 5759 5760 5761 5762 5763 5763 5763 5764 5766 5766 5768 5769 5770 5771 5771 5771 5772 5774 5776 5777 5777 5778 5779 5780 5781 5781 5783 5784 5785 5786 5787 5788 5790 5791 5793 5795
5734 5734 5735 5735 5736 5738 5739 5739 5739 5739 5739 5738 5738 5738 5737 5737 5737 5738 5738 5739 5740 5740 5741 5742 5742 5742 5741 5741 5742 5743 5743 5743 5743 5743 5743 5744 5745 5746 5747 5748 5750 5750 5751 5751 5752 5753 5754 5754 5755 5756 5757 5758 5759 5760 5760 5761 5761 5763 5763 5764 5766 5767 5768 5768 5768 5769 5770 5772 5773 5773 5774 5776 5777 5778 5779 5780 5780 5782 5782 5782 5783 5784 5786 5788 5790
5731 5732 5732 5732 5733 5734 5735 5736 5736 5736 5736 5736 5736 5735 5735 5734 5735 5735 5735 5736 5736 5737 5738 5738 5739 5739 5739 5739 5739 5740 5740 5740 5740 5740 5740 5741 5741 5742 5743 5744 5746 5747 5748 5749 5750 5751 5751 5752 5753 5753 5754 5755 5756 5757 5758 5758 5758 5759 5760 5761 5762 5763 5764 5765 5766 5766 5767 5768 5769 5770 5770 5771 5772 5773 5775 5776 5776 5778 5779 5780 5779 5779 5781 5783 5785
5728 5729 5730 5730 5730 5731 5732 5733 5733 5734 5734 5733 5733 5733 5733 5732 5732 5732 5732 5732 5733 5734 5735 5735 5735 5736 5736 5736 5736 5737 5738 5738 5738 5738 5738 5738 5738 5739 5740 5741 5742 5743 5745 5746 5747 5748 5749 5750 5750 5751 5751 5752 5753 5754 5755 5755 5756 5757 5757 5758 5759 5760 5761 5762 5763 5763 5764 5765 5766 5766 5767 5767 5768 5769 5770 5771 5771 5773 5775 5776 5776 5776 5776 5779 5780
5725 5726 5727 5727 5728 5728 5729 5730 5731 5731 5731 5731 5730 5730 5731 5730 5730 5730 5729 5730 5731 5732 5732 5732 5732 5732 5733 5733 5734 5734 5735 5735 5736 5736 5736 5736 5736 5736 5737 5737 5738 5739 5740 5742 5743 5745 5746 5747 5747 5748 5749 5749 5750 5751 5752 5753 5753 5754 5755 5756 5756 5757 5758 5759 5760 5761 5761 5761 5762 5763 5763 5764 5764 5765 5766 5767 5767 5768 5769 5771 5773 5772 5772 5775 5776
5722 5723 5723 5724 5725 5725 5726 5727 5728 5729 5728 5728 5728 5728 5729 5729 5728 5728 5727 5728 5728 5729 5729 5729 5729 5730 5730 5730 5731 5731 5732 5733 5733 5734 5734 5734 5734 5734 5735 5735 5736 5736 5737 5738 5739 5740 5742 5743 5744 5745 5746 5746 5747 5748 5749 5749 5750 5751 5752 5752 5753 5754 5755 5756 5756 5757 5757 5758 5759 5759 5760 5760 5761 5762 5762 5763 5763 5764 5765 5766 5768 5768 5768 5770 5771
5718 5719 5720 5721 5722 5722 5723 5724 5725 5726 5726 5726 5726 5726 5726 5727 5726 5726 5726 5726 5726 5726 5726 5726 5727 5727 5728 5728 5728 5728 5729 5730 5731 5731 5731 5732 5732 5732 5733 5733 5733 5734 5734 5735 5736 5736 5737 5738 5740 5741 5742 5743 5744 5745 5746 5746 5747 5747 5748 5749 5749 5750 5751 5752 5753 5753 5754 5754 5755 5755 5756 5756 5757 5758 5758 5759 5760 5760 5761 5762 5763 5763 5763 5765 5766
5715 5716 5717 5718 5718 5719 5719 5721 5722 5723 5723 5723 5723 5724 5724 5724 5724 5724 5724 5724 5723 5723 5723 5723 5724 5724 5725 5725 5725 5726 5726 5727 5728 5728 5729 5729 5729 5730 5730 5730 5731 5731 5732 5732 5733 5734 5734 5735 5736 5737 5738 5739 5740 5741 5742 5743 5743 5744 5744 5745 5745 5746 5747 5747 5748 5749 5750 5750 5751 5752 5752 5752 5753 5754 5754 5755 5755 5756 5757 5758 5758 5759 5759 5760 5761
5712 5713 5714 5715 5716 5716 5716 5718 5719 5720 5721 5721 5721 5721 5721 5721 5721 5721 5721 5721 5721 5720 5720 5720 5721 5721 5721 5722 5722 5723 5723 5724 5724 5725 5725 5726 5727 5727 5728 5728 5728 5728 5729 5729 5730 5731 5732 5733 5733 5734 5735 5735 5736 5737 5738 5739 5740 5740 5741 5741 5742 5742 5743 5743 5744 5745 5746 5746 5747 5747 5748 5748 5749 5750 5750 5751 5751 5751 5752 5752 5753 5754 5754 5755 5756
5711 5711 5712 5713 5713 5713 5714 5715 5716 5717 5717 5718 5718 5718 5719 5719 5719 5719 5719 5718 5718 5717 5717 5718 5718 5718 5718 5718 5719 5720 5720 5720 5721 5721 5722 5723 5723 5724 5725 5725 5725 5725 5726 5726 5727 5728 5729 5730 5731 5732 5732 5733 5734 5734 5735 5735 5736 5737 5737 5738 5738 5739 5739 5740 5740 5740 5741 5741 5742 5742 5743 5743 5744 5745 5745 5746 5746 5747 5747 5747 5747 5748 5749 5750 5751
5709 5710 5711 5711 5711 5711 5712 5713 5714 5715 5715 5715 5715 5715 5716 5716 5717 5717 5717 5716 5716 5715 5715 5715 5715 5715 5715 5715 5716 5716 5717 5717 5717 5718 5718 5719 5719 5720 5721 5722 5723 5723 5723 5723 5724 5725 5725 5726 5727 5728 5729 5730 5730 5731 5731 5732 5732 5733 5734 5734 5735 5735 5736 5736 5737 5737 5737 5737 5737 5737 5737 5738 5739 5739 5740 5740 5741 5742 5742 5742 5742 5743 5743 5744 5745
5707 5708 5709 5709 5710 5709 5709 5710 5712 5712 5713 5713 5713 5713 5713 5714 5714 5715 5715 5715 5714 5714 5713 5713 5713 5712 5712 5712 5712 5713 5713 5714 5714 5714 5715 5715 5715 5716 5717 5718 5719 5720 5720 5721 5721 5721 5722 5722 5723 5724 5725 5726 5726 5727 5727 5728 5728 5729 5730 5730 5731 5731 5732 5732 5733 5733 5733 5733 5733 5732 5732 5733 5733 5734 5734 5735 5735 5736 5737 5737 5737 5737 5738 5738 5739
5703 5704 5705 5707 5707 5707 5707 5707 5708 5709 5710 5710 5710 5711 5711 5712 5712 5713 5713 5713 5713 5712 5712 5711 5710 5710 5709 5709 5709 5709 5709 5710 5710 5711 5711 5711 5711 5712 5713 5714 5715 5716 5717 5717 5717 5718 5718 5719 5719 5720 5721 5721 5722 5722 5722 5723 5723 5724 5725 5725 5726 5726 5727 5728 5728 5729 5729 5729 5729 5728 5728 5728 5728 5729 5728 5729 5729 5730 5731 5731 5732 5732 5732 5732 5733
5699 5700 5701 5702 5704 5704 5704 5704 5704 5706 5707 5707 5707 5707 5708 5709 5709 5709 5710 5710 5710 5710 5709 5709 5708 5707 5706 5706 5706 5706 5706 5706 5707 5707 5707 5707 5707 5708 5709 5710 5711 5711 5712 5713 5714 5714 5714 5715 5715 5716 5716 5716 5717 5717 5718 5718 5719 5719 5720 5720 5720 5721 5721 5722 5723 5723 5724 5724 5724 5724 5723 5723 5723 5724 5723 5723 5723 5724 5724 5725 5725 5726 5727 5726 5727
5694 5695 5696 5698 5699 5700 5700 5700 5700 5702 5702 5703 5703 5703 5704 5705 5705 5705 5706 5706 5707 5707 5707 5706 5705 5704 5704 5703 5703 5703 5703 5703 5703 5703 5703 5703 5703 5704 5704 5705 5706 5707 5708 5709 5709 5710 5710 5711 5711 5711 5712 5712 5712 5712 5713 5713 5714 5714 5714 5715 5715 5716 5716 5716 5716 5717 5717 5718 5719 5719 5718 5718 5718 5718 5718 5718 5718 5718 5718 5719 5719 5720 5721 5720 5720
5689 5690 5691 5692 5694 5695 5695 5695 5695 5697 5698 5698 5698 5698 5699 5700 5701 5701 5702 5702 5702 5703 5703 5703 5702 5701 5701 5700 5700 5699 5699 5699 5699 5699 5699 5699 5699 5699 5700 5701 5701 5702 5703 5704 5705 5705 5706 5707 5707 5707 5707 5707 5707 5707 5708 5708 5708 5709 5709 5709 5710 5710 5710 5710 5710 5711 5711 5711 5712 5712 5712 5712 5713 5712 5712 5712 5712 5712 5712 5713 5713 5713 5713 5714 5714
5684 5685 5686 5687 5688 5689 5690 5690 5690 5691 5692 5693 5693 5693 5694 5695 5696 5696 5697 5697 5698 5699 5699 5699 5699 5698 5698 5697 5697 5696 5696 5695 5695 5695 5694 5694 5695 5695 5696 5696 5697 5698 5698 5699 5700 5701 5701 5702 5702 5703 5703 5703 5703 5703 5703 5703 5703 5703 5703 5704 5704 5704 5704 5704 5705 5705 5705 5705 5705 5705 5705 5705 5706 5706 5706 5705 5706 5706 5706 5706 5706 5706 5706 5707 5707
5680 5680 5681 5681 5682 5683 5684 5685 5685 5686 5687 5688 5688 5689 5689 5690 5691 5691 5692 5692 5693 5694 5694 5695 5695 5695 5694 5694 5693 5693 5692 5691 5691 5690 5690 5690 5690 5691 5692 5692 5692 5693 5694 5694 5695 5695 5696 5697 5697 5698 5698 5698 5698 5698 5698 5698 5698 5698 5698 5698 5698 5698 5698 5698 5698 5698 5698 5699 5699 5699 5698 5698 5698 5699 5699 5699 5699 5699 5699 5699 5699 5699 5699 5699 5700
5675 5675 5676 5677 5677 5678 5678 5679 5680 5681 5681 5682 5683 5684 5684 5685 5686 5686 5686 5687 5687 5688 5689 5690 5690 5690 5690 5690 5690 5690 5689 5687 5687 5686 5686 5685 5685 5686 5688 5688 5688 5689 5689 5690 5690 5690 5691 5691 5692 5692 5692 5692 5692 5692 5692 5692 5692 5692 5692 5692 5692 5692 5692 5692 5692 5692 5692 5692 5692 5692 5692 5691 5691 5691 5691 5691 5691 5692 5692 5692 5692 5692 5692 5692 5692
5669 5669 5670 5671 5672 5672 5672 5673 5674 5674 5675 5676 5677 5677 5678 5679 5680 5680 5680 5681 5681 5681 5682 5683 5685 5685 5686 5686 5685 5685 5686 5684 5683 5682 5682 5681 5681 5682 5683 5684 5685 5685 5685 5685 5686 5686 5686 5686 5687 5687 5687 5687 5687 5687 5687 5687 5687 5687 5686 5686 5686 5686 5687 5687 5687 5686 5686 5686 5685 5685 5685 5685 5684 5684 5684 5684 5683 5683 5684 5684 5685 5685 5685 5685 5685
5663 5663 5664 5665 5666 5666 5667 5667 5667 5668 5668 5669 5670 5671 5672 5673 5674 5674 5675 5676 5676 5676 5677 5677 5679 5680 5680 5681 5681 5680 5681 5681 5680 5678 5678 5677 5676 5677 5678 5680 5681 5681 5681 5681 5681 5681 5681 5681 5681 5682 5682 5682 5681 5681 5681 5681 5681 5681 5681 5681 5681 5681 5681 5681 5681 5681 5680 5680 5679 5678 5678 5678 5677 5677 5676 5676 5676 5675 5675 5676 5676 5676 5677 5677 5678
5657 5658 5658 5659 5659 5660 5660 5661 5661 5661 5662 5662 5663 5664 5665 5666 5667 5667 5668 5669 5670 5671 5672 5672 5673 5674 5675 5675 5675 5675 5675 5676 5675 5674 5674 5673 5673 5672 5673 5675 5676 5677 5677 5677 5677 5677 5676 5676 5676 5677 5677 5677 5676 5676 5676 5676 5676 5675 5675 5675 5675 5675 5675 5675 5675 5675 5675 5674 5673 5672 5672 5671 5670 5669 5669 5668 5668 5667 5667 5667 5667 5667 5668 5669 5669
5650 5651 5651 5652 5652 5652 5653 5654 5654 5655 5655 5656 5657 5657 5658 5660 5660 5661 5662 5662 5663 5665 5666 5667 5667 5668 5668 5669 5669 5669 5670 5670 5669 5669 5668 5669 5669 5668 5669 5670 5671 5672 5672 5672 5672 5672 5671 5671 5671 5671 5672 5672 5672 5671 5671 5671 5670 5670 5670 5670 5670 5670 5669 5669 5669 5669 5669 5668 5667 5666 5665 5664 5664 5663 5662 5661 5660 5659 5659 5659 5659 5658 5658 5659 5660
5643 5643 5644 5644 5644 5644 5645 5646 5647 5648 5649 5649 5650 5651 5651 5652 5653 5654 5655 5656 5657 5658 5659 5660 5661 5662 5662 5662 5663 5664 5665 5664 5664 5663 5663 5663 5663 5664 5664 5664 5665 5667 5667 5667 5667 5667 5666 5666 5666 5666 5666 5666 5666 5666 5666 5665 5664 5664 5664 5664 5664 5664 5663 5663 5663 5662 5662 5661 5660 5659 5658 5657 5656 5655 5654 5653 5652 5652 5651 5650 5650 5650 5650 5650 5650
5635 5636 5636 5636 5636 5637 5637 5638 5640 5641 5642 5642 5643 5644 5644 5644 5645 5647 5648 5649 5650 5651 5651 5653 5654 5655 5655 5656 5657 5658 5658 5659 5659 5658 5657 5656 5656 5657 5658 5658 5659 5660 5661 5661 5661 5661 5661 5661 5661 5660 5660 5661 5661 5660 5660 5659 5659 5658 5658 5658 5658 5657 5657 5656 5656 5655 5654 5654 5653 5652 5651 5650 5649 5648 5647 5645 5644 5644 5643 5642 5641 5641 5641 5641 5641
5627 5628 5629 5629 5629 5630 5630 5631 5632 5633 5635 5635 5635 5636 5636 5637 5638 5639 5640 5642 5643 5644 5644 5645 5647 5648 5648 5649 5650 5651 5652 5652 5653 5652 5651 5651 5649 5650 5651 5652 5653 5654 5654 5654 5655 5655 5655 5656 5655 5655 5655 5655 5655 5654 5654 5654 5653 5653 5652 5652 5652 5651 5650 5650 5649 5648 5647 5646 5645 5644 5643 5642 5641 5639 5638 5637 5636 5635 5634 5633 5632 5632 5632 5632 5631
5618 5619 5620 5621 5621 5622 5622 5623 5624 5625 5626 5627 5627 5628 5628 5629 5630 5631 5633 5634 5635 5637 5638 5638 5640 5641 5641 5642 5643 5644 5645 5645 5645 5645 5645 5645 5643 5643 5645 5646 5647 5647 5648 5648 5648 5649 5649 5649 5650 5650 5649 5649 5648 5648 5648 5648 5648 5647 5647 5646 5646 5645 5644 5643 5642 5641 5639 5638 5637 5635 5635 5634 5632 5630 5629 5627 5626 5625 5624 5624 5623 5622 5622 5622 5621
5610 5611 5611 5612 5612 5613 5614 5614 5614 5616 5617 5618 5618 5618 5619 5621 5622 5623 5625 5626 5627 5629 5631 5632 5633 5634 5634 5635 5636 5637 5638 5637 5638 5637 5637 5637 5635 5636 5638 5640 5640 5640 5641 5642 5643 5643 5642 5643 5643 5644 5643 5642 5642 5642 5642 5642 5642 5641 5641 5640 5639 5638 5637 5636 5635 5633 5632 5630 5629 5627 5626 5624 5623 5621 5619 5617 5615 5614 5614 5614 5613 5613 5613 5612 5612
5602 5602 5603 5603 5603 5604 5605 5605 5606 5606 5607 5607 5608 5608 5610 5612 5613 5614 5616 5617 5619 5621 5623 5624 5625 5626 5627 5627 5628 5630 5630 5630 5630 5630 5629 5629 5629 5629 5631 5633 5633 5634 5635 5636 5637 5637 5637 5637 5637 5638 5637 5636 5635 5635 5636 5636 5636 5635 5635 5634 5633 5632 5630 5629 5628 5626 5624 5622 5621 5619 5617 5615 5613 5611 5608 5605 5604 5602 5602 5602 5603 5603 5603 5602 5603
5593 5594 5594 5595 5595 5596 5596 5597 5597 5598 5598 5598 5599 5600 5601 5603 5604 5605 5606 5608 5610 5613 5614 5615 5617 5618 5619 5619 5620 5622 5622 5621 5621 5622 5622 5622 5622 5622 5623 5625 5626 5627 5628 5629 5630 5631 5631 5631 5631 5631 5630 5629 5629 5630 5630 5630 5629 5629 5628 5627 5626 5624 5623 5621 5620 5618 5616 5615 5613 5610 5608 5606 5604 5601 5597 5594 5592 5590 5591 5591 5591 5592 5592 5592 5593
5585 5585 5586 5586 5587 5587 5588 5589 5589 5590 5590 5589 5590 5592 5593 5595 5596 5595 5596 5599 5602 5604 5605 5606 5607 5608 5610 5611 5612 5614 5614 5614 5614 5615 5616 5617 5616 5616 5617 5619 5620 5621 5621 5622 5623 5624 5624 5625 5625 5624 5624 5624 5624 5624 5623 5623 5622 5621 5620 5619 5618 5617 5615 5613 5612 5610 5608 5606 5604 5601 5598 5595 5593 5590 5587 5584 5582 5579 5579 5580 5580 5580 5581 5582 5583
5577 5577 5577 5578 5578 5579 5580 5580 5581 5581 5581 5581 5582 5583 5585 5587 5588 5586 5587 5590 5593 5595 5595 5596 5597 5599 5600 5602 5604 5606 5607 5607 5608 5610 5610 5610 5610 5610 5611 5613 5614 5615 5616 5617 5617 5617 5617 5618 5618 5618 5618 5618 5618 5618 5617 5616 5615 5613 5612 5611 5610 5608 5607 5605 5603 5601 5600 5597 5594 5592 5588 5584 5581 5578 5576 5574 5572 5570 5570 5570 5569 5568 5570 5572 5572
5569 5569 5569 5569 5570 5571 5572 5572 5572 5572 5572 5572 5573 5574 5576 5578 5579 5578 5578 5581 5583 5584 5585 5586 5587 5589 5591 5594 5596 5598 5599 5600 5601 5602 5603 5602 5603 5604 5605 5607 5609 5610 5611 5611 5612 5612 5611 5611 5612 5612 5612 5612 5611 5611 5609 5608 5607 5606 5604 5603 5601 5599 5597 5596 5594 5592 5590 5588 5585 5581 5577 5573 5570 5568 5566 5564 5563 5561 5560 5560 5559 5557 5559 5561 5561
5562 5562 5561 5561 5562 5563 5563 5564 5564 5563 5562 5562 5562 5564 5566 5567 5568 5569 5570 5571 5572 5573 5575 5577 5578 5581 5584 5587 5589 5591 5592 5593 5593 5594 5596 5597 5598 5599 5601 5603 5604 5605 5605 5605 5606 5606 5606 5606 5606 5606 5605 5605 5604 5603 5603 5601 5600 5598 5596 5594 5592 5590 5587 5586 5585 5583 5580 5578 5574 5570 5567 5563 5560 5558 5556 5554 5553 5551 5549 5549 5548 5547 5548 5549 5548
5555 5555 5554 5553 5554 5555 5555 5555 5555 5554 5552 5552 5551 5552 5555 5556 5557 5560 5561 5561 5561 5564 5566 5569 5571 5574 5577 5580 5582 5584 5587 5587 5586 5587 5589 5591 5593 5595 5596 5598 5598 5599 5599 5599 5599 5600 5600 5600 5600 5599 5599 5598 5597 5597 5596 5595 5593 5591 5589 5586 5584 5582 5578 5576 5575 5573 5570 5566 5563 5559 5557 5554 5551 5548 5546 5543 5542 5540 5538 5538 5538 5537 5537 5537 5536
5549 5548 5546 5544 5545 5546 5545 5545 5544 5543 5541 5540 5540 5541 5544 5545 5548 5551 5552 5552 5554 5557 5560 5562 5564 5567 5570 5572 5575 5578 5580 5581 5581 5582 5583 5585 5587 5589 5591 5591 5592 5593 5593 5593 5593 5593 5594 5594 5593 5593 5592 5591 5591 5590 5589 5587 5586 5584 5581 5578 5575 5573 5569 5566 5564 5562 5558 5555 5552 5549 5546 5544 5540 5538 5536 5534 5532 5530 5529 5529 5528 5527 5526 5526 5526
5541 5540 5538 5535 5534 5534 5534 5534 5533 5532 5530 5530 5530 5532 5534 5537 5540 5543 5543 5545 5549 5551 5554 5556 5558 5561 5563 5566 5570 5573 5573 5574 5575 5576 5577 5579 5581 5583 5584 5585 5587 5588 5588 5588 5588 5588 5588 5588 5587 5587 5586 5585 5585 5583 5582 5580 5578 5576 5574 5571 5568 5564 5560 5556 5553 5550 5547 5544 5541 5539 5536 5533 5531 5529 5527 5524 5522 5521 5519 5519 5518 5517 5516 5516 5516
5532 5530 5528 5526 5525 5524 5524 5524 5524 5522 5522 5522 5522 5523 5526 5530 5533 5535 5537 5540 5543 5545 5548 5550 5553 5556 5558 5561 5565 5567 5568 5569 5571 5571 5572 5575 5577 5578 5579 5580 5581 5583 5584 5584 5583 5583 5582 5582 5581 5581 5580 5579 5578 5576 5575 5573 5571 5569 5566 5563 5559 5555 5551 5547 5543 5540 5537 5534 5531 5528 5526 5524 5522 5520 5517 5515 5513 5511 5510 5509 5509 5508 5507 5507 5507
5522 5521 5519 5518 5517 5517 5517 5517 5517 5516 5515 5515 5515 5517 5520 5524 5527 5529 5531 5534 5537 5540 5542 5545 5548 5551 5555 5558 5560 5562 5563 5565 5567 5569 5570 5572 5573 5573 5574 5575 5577 5578 5579 5579 5578 5577 5577 5576 5576 5575 5574 5573 5571 5570 5568 5566 5564 5561 5558 5554 5550 5546 5542 5538 5534 5531 5527 5524 5521 5518 5516 5515 5513 5511 5508 5506 5504 5503 5502 5501 5501 5501 5500 5500 5499
5514 5513 5512 5511 5511 5511 5511 5511 5511 5510 5509 5509 5510 5512 5515 5518 5521 5523 5526 5528 5531 5535 5538 5541 5543 5546 5550 5553 5555 5557 5559 5562 5564 5565 5567 5568 5568 5569 5570 5571 5572 5574 5574 5574 5573 5572 5572 5571 5570 5569 5568 5567 5565 5563 5561 5559 5556 5553 5550 5546 5542 5538 5534 5531 5526 5522 5518 5515 5512 5510 5508 5506 5504 5502 5500 5498 5497 5496 5494 5494 5494 5493 5493 5492 5492
5508 5507 5506 5506 5506 5506 5506 5506 5505 5505 5504 5504 5505 5507 5509 5512 5515 5518 5520 5523 5526 5530 5533 5536 5539 5542 5546 5549 5551 5554 5556 5558 5559 5560 5562 5563 5564 5565 5566 5567 5569 5569 5569 5569 5568 5567 5567 5566 5565 5564 5562 5561 5558 5556 5554 5551 5548 5545 5541 5538 5534 5530 5527 5523 5518 5514 5511 5508 5505 5503 5500 5498 5497 5495 5493 5492 5490 5489 5488 5487 5487 5486 5486 5485 5485
5503 5502 5501 5501 5502 5502 5502 5501 5501 5501 5500 5500 5500 5501 5503 5506 5509 5512 5515 5518 5522 5525 5529 5532 5536 5539 5542 5545 5548 5550 5551 5553 5554 5556 5557 5559 5560 5562 5563 5564 5565 5565 5564 5564 5563 5562 5561 5560 5559 5557 5555 5554 5551 5549 5546 5543 5540 5537 5533 5530 5527 5523 5519 5514 5510 5506 5504 5502 5499 5496 5494 5492 5490 5489 5487 5486 5484 5483 5482 5481 5481 5480 5479 5479 5478
5499 5498 5498 5498 5498 5498 5498 5498 5498 5498 5497 5496 5496 5497 5498 5501 5504 5507 5510 5514 5518 5521 5525 5529 5533 5536 5539 5541 5544 5546 5548 5549 5551 5552 5554 5555 5557 5558 5559 5560 5560 5560 5559 5559 5558 5556 5555 5554 5552 5550 5548 5546 5544 5541 5539 5536 5533 5529 5526 5522 5519 5515 5510 5505 5502 5499 5497 5495 5493 5491 5488 5486 5484 5483 5481 5479 5478 5476 5476 5475 5475 5474 5473 5473 5472
5495 5495 5495 5495 5495 5495 5495 5495 5496 5495 5495 5494 5494 5495 5496 5498 5501 5504 5508 5512 5516 5518 5521 5525 5530 5533 5535 5539 5541 5543 5544 5546 5547 5548 5550 5552 5554 5555 5556 5556 5556 5555 5554 5552 5552 5551 5549 5547 5545 5543 5541 5539 5536 5534 5532 5530 5526 5523 5519 5515 5511 5506 5502 5497 5495 5493 5491 5488 5486 5485 5483 5481 5479 5477 5476 5473 5471 5470 5469 5469 5469 5468 5467 5466 5465